This is the latest recevied weather packets stored in our database for station/object JS2WAD-13. If no packets are shown the sender has not sent any weather packets the latest 1 day(s).
| Time | Temp. | Humidity | Pressure | Rain* | Wind** | Luminosity | Snow |
|---|---|---|---|---|---|---|---|
| 1778059280 | 18.89° C | 78% | 909.2 hPa | 0 mm | - | 5 W/m² | - |
| 1778058980 | 18.89° C | 77% | 909.1 hPa | 0 mm | - | 7 W/m² | - |
| 1778058680 | 18.89° C | 78% | 909.2 hPa | 0 mm | - | 7 W/m² | - |
| 1778058380 | 18.89° C | 78% | 909.3 hPa | 0 mm | - | 5 W/m² | - |
| 1778058080 | 18.89° C | 79% | 909.2 hPa | 0 mm | - | 7 W/m² | - |
| 1778057780 | 18.89° C | 77% | 909.2 hPa | 0 mm | - | 9 W/m² | - |
| 1778057480 | 18.89° C | 77% | 909.3 hPa | 0 mm | - | 7 W/m² | - |
| 1778057180 | 18.89° C | 77% | 909.2 hPa | 0 mm | - | 9 W/m² | - |
| 1778056880 | 18.89° C | 77% | 909.1 hPa | 0 mm | - | 11 W/m² | - |
| 1778056580 | 18.89° C | 77% | 909.1 hPa | 0 mm | - | 12 W/m² | - |
| 1778056280 | 18.89° C | 77% | 909 hPa | 0 mm | - | 14 W/m² | - |
| 1778055680 | 18.89° C | 77% | 909 hPa | 0 mm | - | 18 W/m² | - |
| 1778055380 | 18.89° C | 77% | 909.2 hPa | 0 mm | - | 18 W/m² | - |
| 1778055080 | 18.89° C | 77% | 909.4 hPa | 0 mm | - | 14 W/m² | - |
| 1778054780 | 18.89° C | 77% | 909.3 hPa | 0 mm | - | 18 W/m² | - |
| 1778054480 | 18.89° C | 77% | 909.3 hPa | 0 mm | - | 16 W/m² | - |
| 1778054180 | 18.89° C | 77% | 909.3 hPa | 0 mm | - | 16 W/m² | - |
| 1778053880 | 18.89° C | 77% | 909.3 hPa | 0 mm | - | 19 W/m² | - |
| 1778053580 | 18.89° C | 77% | 909.5 hPa | 0 mm | - | 23 W/m² | - |
| 1778053280 | 18.89° C | 78% | 909.4 hPa | 0 mm | - | 32 W/m² | - |
| 1778052980 | 18.89° C | 82% | 909.2 hPa | 0 mm | - | 42 W/m² | - |
| 1778052680 | 18.89° C | 78% | 909.3 hPa | 0 mm | - | 51 W/m² | - |
| 1778052380 | 18.89° C | 80% | 909.3 hPa | 0 mm | - | 70 W/m² | - |
| 1778052080 | 18.89° C | 78% | 909.4 hPa | 0 mm | - | 81 W/m² | - |
| 1778051780 | 18.89° C | 80% | 909.4 hPa | 0 mm | - | 113 W/m² | - |
* Rain latest hour (hover to see other rain measurements)
** Current wind speed in m/s (hover to see current wind gust speed)